Location: Battersea Observatory
(44.4318°N, 76.3841°W)
Time: 21:23:02
(UTC-04:00)

Tiros 1 despin weight - Pass Details

Date: 26 January 2022
Orbit: 592 x 639 km, 48.2° (Epoch: 25 May)

Event Time Altitude Azimuth Distance (km) Brightness Sun altitude
Rises 16:23:37 0° 229° (SW) 2,855 ? 5.8°
Reaches altitude 10° 16:25:56 10° 224° (SW) 1,962 ? 5.5°
Maximum altitude 16:30:19 52° 149° (SSE) 772 ? 4.8°
Drops below altitude 10° 16:34:47 10° 73° (ENE) 2,002 ? 4.2°
Sets 16:37:10 0° 68° (ENE) 2,919 ? 3.8°
